This is the latest recevied weather packets stored in our database for station/object KD2DXJ. If no packets are shown the sender has not sent any weather packets the latest 10 day(s).
| Time | Temp. | Humidity | Pressure | Rain* | Wind** | Luminosity | Snow |
|---|---|---|---|---|---|---|---|
| 1777846886 | 10.56° C | 45% | 1007.9 hPa | 0 mm | - | 52 W/m² | - |
| 1777846585 | 10.56° C | 45% | 1008.2 hPa | 0 mm | - | 49 W/m² | - |
| 1777846282 | 10.56° C | 46% | 1008.1 hPa | 0 mm | - | 42 W/m² | - |
| 1777845979 | 10.56° C | 45% | 1008.1 hPa | 0 mm | - | 38 W/m² | - |
| 1777845675 | 11.11° C | 44% | 1008.1 hPa | 0 mm | - | 42 W/m² | - |
| 1777845372 | 11.11° C | 43% | 1008.1 hPa | 0 mm | - | 42 W/m² | - |
| 1777845069 | 11.11° C | 44% | 1008.1 hPa | 0 mm | - | 40 W/m² | - |
| 1777844768 | 11.11° C | 44% | 1008.3 hPa | 0 mm | - | 39 W/m² | - |
| 1777844463 | 11.11° C | 43% | 1008.1 hPa | 0 mm | - | 45 W/m² | - |
| 1777844162 | 11.11° C | 44% | 1008.3 hPa | 0 mm | - | 43 W/m² | - |
| 1777843858 | 11.11° C | 45% | 1008.3 hPa | 0 mm | - | 48 W/m² | - |
| 1777843556 | 10.56° C | 44% | 1008.4 hPa | 0 mm | - | 50 W/m² | - |
| 1777843253 | 10.56° C | 44% | 1008.4 hPa | 0 mm | - | 42 W/m² | - |
| 1777842950 | 11.11° C | 44% | 1008.4 hPa | 0 mm | - | 51 W/m² | - |
| 1777842645 | 11.11° C | 43% | 1008.5 hPa | 0 mm | - | 52 W/m² | - |
| 1777842343 | 11.11° C | 43% | 1008.5 hPa | 0 mm | - | 79 W/m² | - |
| 1777842038 | 11.11° C | 42% | 1008.5 hPa | 0 mm | - | 76 W/m² | - |
| 1777841735 | 11.11° C | 40% | 1008.7 hPa | 0 mm | - | 94 W/m² | - |
| 1777841432 | 11.67° C | 39% | 1008.5 hPa | 0 mm | - | 347 W/m² | - |
| 1777841129 | 11.67° C | 41% | 1008.7 hPa | 0 mm | - | 332 W/m² | - |
| 1777840826 | 11.67° C | 40% | 1008.8 hPa | 0 mm | - | 206 W/m² | - |
| 1777840523 | 11.67° C | 45% | 1008.7 hPa | 0 mm | - | 393 W/m² | - |
| 1777840220 | 11.67° C | 42% | 1008.8 hPa | 0 mm | - | 412 W/m² | - |
| 1777839918 | 11.67° C | 41% | 1008.8 hPa | 0 mm | - | 230 W/m² | - |
| 1777839615 | 12.22° C | 39% | 1008.8 hPa | 0 mm | - | 335 W/m² | - |
* Rain latest hour (hover to see other rain measurements)
** Current wind speed in m/s (hover to see current wind gust speed)